Regional Weather Roundup
Issued by NWS

Home | Current Version | Previous Version | Graphics & Text | Print | Product List | Glossary On
Versions: 1 2 3 4 5 6 7 8 9 10 11 12 13 14 15 16 17 18 19 20 21 22 23 24 25 26 27 28 29 30 31 32 33 34 35 36 37 38 39 40 41 42 43 44 45 46 47 48 49 50
000
ASUS43 KDTX 210201
RWRMI
MICHIGAN HOURLY REGIONAL WEATHER ROUNDUP
NATIONAL WEATHER SERVICE DETROIT/PONTIAC MI
1000 PM EDT SAT SEP 20 2014

NOTE: "FAIR" INDICATES FEW OR NO CLOUDS BELOW 12,000 FEET WITH NO
SIGNIFICANT WEATHER AND/OR OBSTRUCTION TO VISIBILITY.

MIZ047>049-052>055-059>063-066>070-074>076-081>083-210300-
SOUTHEAST LOWER MICHIGAN

CITY           SKY/WX    TMP DP  RH WIND       PRES   REMARKS
ADRIAN         CLOUDY    64  62  93 SW12      29.84F
ALMA           CLOUDY    65  64  95 SW6       29.77S
ANN ARBOR      CLOUDY    63  60  90 SW7       29.82S
BAD AXE        RAIN      65  65 100 SW10G17   29.74R
CARO           CLOUDY    64  64  97 S7        29.75S
DETROIT CITY   LGT RAIN  67  62  84 SW14G23   29.82F
DETROIT        CLOUDY    63  61  93 S8        29.83S
FLINT          MOCLDY    66  62  87 SW9       29.78S
GROSSE ILE     LGT RAIN  64  61  88 S7        29.82S
HILLSDALE      CLOUDY    64  64 100 SW7       29.84F
HOWELL         MOCLDY    62  61  94 S8        29.80F

CITY           SKY/WX    TMP DP  RH WIND       PRES   REMARKS
JACKSON        CLOUDY    63  61  93 SW8       29.82S
LAMBERTVILLE   CLOUDY    64  63  94 SW8       29.85F
LANSING        MOCLDY    65  63  93 SW12      29.79S
LAPEER         CLOUDY    65  62  91 SW8G22    29.79R
MASON          MOCLDY    63  61  94 S3        29.80F
MONROE         CLOUDY    64  63  94 SW8       29.82F
MT. CLEMENS    CLOUDY    65  65 100 SW14      29.79S
PONTIAC        CLOUDY    63  60  90 SW9       29.80S
PORT HOPE        N/A     67  64  90 SW8       29.69F
PORT HURON     CLOUDY    66  64  94 SW9       29.79S
TRI CITIES     CLOUDY    68  64  87 SW9       29.76R
TROY           CLOUDY    65  62  88 SW9       29.82S
SAGINAW HB     PTCLDY    64  64 100 SW10G16   29.74F
$$
MIZ043>046-050>051-056>058-064>065-071>073-077>080-210300-
SOUTHWEST LOWER MICHIGAN

CITY           SKY/WX    TMP DP  RH WIND       PRES   REMARKS
BATTLE CREEK   CLOUDY    64  61  90 S9        29.82S
BENTON HARBOR  PTCLDY    64  63  96 S5        29.79F
BIG RAPIDS     CLOUDY    65  65  99 SW10      29.74S
COLDWATER      MOCLDY    65  64  96 SW6       29.83S
FREMONT        MOCLDY    62  62  98 SW5       29.75S
HOLLAND        MOCLDY    68  65  90 SW10      29.78F FOG
GRAND RAPIDS   MOCLDY    66  65  96 SW10      29.78S
IONIA          MOCLDY    65  64  97 SW10      29.77F
KALAMAZOO      MOCLDY    62  60  93 S8        29.81F
LUDINGTON      CLEAR     63  61  92 SW9       29.71F
MARSHALL       MOCLDY    61  60  94 S3        29.82S
MOUNT PLEASANT PTCLDY    65  64  94 SW7       29.74S
MUSKEGON       PTCLDY    65  61  87 SW10      29.75S
SOUTH HAVEN    CLEAR     67  66  96 SW7       29.78F
$$
MIZ016>042-210300-
NORTHERN LOWER MICHIGAN

CITY           SKY/WX    TMP DP  RH WIND       PRES   REMARKS
ALPENA         CLOUDY    65  63  93 VRB5      29.66R
BEAVER ISLAND  PTCLDY    60  57  90 NW6       29.70R
BELLAIRE       CLOUDY    65  63  91 CALM      29.69R
CADILLAC       MOCLDY    63  63  99 SW9       29.72S
CHARLEVOIX     MOCLDY    62  61  98 W3        29.72R FOG
FRANKFORT      HVY RAIN  64  60  86 CALM      29.69S
GAYLORD        LGT RAIN  63  61  93 W5        29.70R
GRAYLING       CLOUDY    67  66  97 SW8G16    29.71R
HARBOR SPRINGS MOCLDY    62  61  96 CALM      29.69R FOG
HOUGHTON LAKE  CLOUDY    64  62  93 SW8       29.72S
MANISTEE       CLOUDY    64  61  88 S3        29.71S
OSCODA         CLOUDY    64  64  97 W13G18    29.69R
PELLSTON       PTCLDY    61  60  97 W5        29.69R
ROGERS CITY    CLOUDY    63  63 100 W5        29.67R
TRAVERSE CITY  TSTM      65  62  90 SW6       29.67R
$$
MIZ007>008-015-210300-
EASTERN UPPER MICHIGAN

CITY           SKY/WX    TMP DP  RH WIND       PRES   REMARKS
KINROSS        CLOUDY    55  55 100 NW9       29.66R
MACKINAC ISLAN CLEAR     59  57  94 W5        29.67R
NEWBERRY       CLOUDY    55  53  92 NW9G17    29.68R
S. S. MARIE    CLOUDY    56  54  93 NW10      29.65R FOG
$$
MIZ004>006-011>014-085-210300-
CENTRAL UPPER MICHIGAN

CITY           SKY/WX    TMP DP  RH WIND       PRES   REMARKS
MANISTIQUE     PTCLDY    54  53  95 N7        29.68S
ESCANABA       CLEAR     61  54  77 NE9       29.68S
MENOMINEE      PTCLDY    61  57  88 CALM      29.66R
SAWYER-GWINN   MOCLDY    55  52  88 N10       29.70F
$$
MIZ001>003-009>011-084-210300-
WESTERN UPPER MICHIGAN

CITY           SKY/WX    TMP DP  RH WIND       PRES   REMARKS
IRON MOUNTAIN  MOCLDY    60  53  77 N5        29.68R
HOUGHTON       CLOUDY    53  51  93 CALM      29.70F
COPPER HARBOR    N/A     52  49  89 NW3       29.71S
IRONWOOD       CLOUDY    54  52  94 CALM      29.68R
$$

ABBREVIATIONS USED IN REMARKS
   TC - TEMPERATURE IN CELSIUS
  WCI - WIND CHILL INDEX
   HX - HEAT INDEX
  VSB - VISIBILITY




USA.gov is the U.S. government's official web portal to all federal, state and local government web resources and services.